Location: Newark
(49.8969°N, 3.3422°E)
Time: 02:04:52
(UTC+00:00)

Altair - Visible Passes

Search period start: 21 January 2020 00:00
Search period end: 31 January 2020 00:00
Orbit: 1502 x 1682 km, 47.2° (Epoch: 20 January)

Date Brightness Start Highest point End Pass type
(mag) Time Alt. Az. Time Alt. Az. Time Alt. Az.
21 Jan 10.4 17:52:09 10° WSW 17:54:41 11° WSW 17:57:13 10° SW visible
22 Jan 10.4 17:25:53 10° W 17:29:43 13° WSW 17:33:31 10° SW visible
23 Jan 10.3 06:41:20 10° SSE 06:46:32 16° SE 06:51:46 10° E visible
23 Jan 10.4 16:59:59 10° W 17:04:44 15° WSW 17:09:26 10° SSW visible
24 Jan 10.3 06:17:07 10° SSE 06:21:32 14° ESE 06:25:59 10° E visible
25 Jan 10.4 05:53:09 10° SE 05:56:33 12° ESE 05:59:58 10° E visible
26 Jan 10.4 05:29:51 10° SE 05:31:35 11° ESE 05:33:19 10° ESE visible
28 Jan 9.4 06:35:22 10° SSW 06:43:48 33° SE 06:52:23 10° E visible
29 Jan 9.4 06:10:32 10° SSW 06:18:44 30° SE 06:27:04 10° E visible
30 Jan 9.5 05:45:45 10° S 05:53:41 28° SE 06:01:45 10° E visible
